Weather in Bratskoe

Ukraine / Mykolaiv District     47°51′58″N   31°34′24″E
temp.,
°C
wind,
m/s
gust,
m/s
humid.,
%
clouds,
%
prec.,
mm/h
press.,
hPa
HPBL,
m
10 april, sat
sat1000:00+4nne22644 0.0 102711
03:00+3nne22685 0.0 102711
06:00+2ene22720 0.0 102714
09:00+6ene22540 0.0 1028297
12:00+10ene12320 0.0 10271703
15:00+12ssw11284 0.0 10262220
18:00+11wnw123024 0.0 10252027
21:00+8nw22385 0.0 102616
11 april, sun
sun1100:00+6nne33455 0.0 102728
03:00+5nne33530 0.0 102725
06:00+4ne33540 0.0 102834
09:00+9ne46430 0.0 1028370
12:00+13ne55370 0.0 10281577
15:00+15ne55355 0.0 10261809
18:00+14ne56416 0.0 10251500
21:00+9nne4853100 0.0 1026128
12 april, mon
mon1200:00+8nne485898 0.0 1025126
03:00+7nne4860100 0.0 1024125
06:00+5n4964100 0.0 1023151
09:00+9nne5953100 0.0 1022419
12:00+10nne5656100 0.0 1021597
15:00+9nne4474100 0.0 1021440
18:00+8ne2589100 0.5 1021276
21:00+8e1290100 0.6 1021123
13 april, tue
tue1300:00+8sse1291100 0.0 102155
03:00+8sw1192100 0.0 102136
06:00+8s2292100 0.0 102057
09:00+9sse3483100 0.0 1021273
12:00+13sse3463100 0.0 1020886
15:00+14s3457100 0.0 10191389
18:00+13s3569100 0.0 1019325
21:00+10s577226 0.0 1019299
14 april, wed
wed1400:00+7s38835 0.0 1019186
03:00+6sse37908 0.0 1018152
06:00+5se369421 0.0 1018118
09:00+9sse5878100 0.0 1017543
12:00+14sse7954100 0.0 10161421
15:00+14s71053100 0.0 10141763
18:00+10s61176100 0.2 1014800
21:00+9sse51285100 0.3 1013601